COSMOS 2557 (706K)

Last updated on Mon Jun 22 2026 00:02:55 GMT+0000 (Coordinated Universal Time)

1 52984U 22075A 26171.86302699 -.00000067 00000+0 00000+0 0 9996 2 52984 64.2965 314.3556 0010286 273.9736 85.9018 2.13102004 30796
UTC large
Height (km)
Speed (km/s)
/
Latitude / Longitude
Inclination (degrees)
Orbital Period (minutes)
Azimuth
Elevation
Range (km)
Doppler Factor

Next 0 passes for location: London (51.5072 / 0.1276)

No passes found over London.
COSMOS 2557 (706K)